RH
13 12 11 10 9 10 13 18 23 27 29 28 27 28 30 33 36 40 39 44 45 48 50 53 58 65 66 68 67 72 74 66 44 40 39 50 56 62 61 60 59 55 53 44 42
13 12 11 10 9 9 10 14 18 24 27 26 25 27 32 36 40 46 47 45 44 51 53 45 59 59 54 64 67 64 60 48 40 37 39 47 49 57 61 61 61 60 55 43 39
13 12 12 10 9 8 8 10 14 19 24 25 25 24 33 40 43 46 48 48 48 52 56 61 59 59 56 64 69 60 52 43 40 38 36 31 36 50 55 60 56 55 50 40 36
13 12 11 10 10 8 8 7 10 14 19 24 23 23 28 36 42 42 46 53 60 61 60 66 61 66 64 66 62 60 50 38 37 39 38 35 35 39 45 47 48 48 45 36 35
13 12 11 10 10 9 7 7 7 9 14 19 22 22 23 29 37 42 46 53 57 61 65 67 61 64 62 55 56 53 47 37 39 40 37 38 39 38 38 44 46 45 38 34 35
13 12 11 10 9 9 8 6 6 6 9 15 18 20 20 26 29 33 42 50 59 59 55 59 54 56 55 59 57 60 48 40 36 43 41 38 35 37 35 35 35 33 36 35 34
13 12 11 10 10 9 8 7 5 5 6 9 14 17 19 25 27 29 39 45 55 54 52 58 55 56 56 57 66 63 47 48 41 52 48 37 37 33 31 32 32 29 34 33 34
12 11 11 10 10 9 8 7 6 4 4 6 9 13 16 21 22 26 33 42 51 47 47 48 55 54 58 57 69 60 56 58 48 51 49 42 38 34 27 31 31 31 33 36 40
12 11 11 11 10 9 8 7 6 5 4 4 6 9 14 18 17 20 29 38 43 44 47 47 47 54 52 62 65 60 72 63 59 48 45 44 44 38 27 31 32 32 32 35 41
12 11 10 11 11 10 9 8 6 5 4 4 7 9 10 14 15 18 23 33 37 40 42 41 47 51 53 59 65 59 61 64 61 52 43 48 46 42 32 29 29 32 32 33 32
14 12 11 11 11 11 10 9 12 16 7 5 7 8 9 10 13 16 23 31 34 35 31 38 47 52 53 51 49 50 57 57 55 51 55 67 63 58 37 34 30 29 30 31 32
15 14 11 10 11 13 12 18 15 17 15 8 7 8 9 11 13 15 20 27 31 35 39 48 51 44 42 33 42 47 49 55 57 50 53 57 71 58 49 40 31 29 30 30 30
16 15 15 11 11 13 14 16 15 16 16 14 12 7 7 9 10 12 16 24 27 33 40 45 51 46 39 34 40 45 49 48 48 46 47 53 59 53 47 45 35 30 28 30 28
14 16 16 17 11 13 14 16 16 16 18 15 13 9 8 8 8 9 11 17 22 28 32 40 40 42 32 25 31 32 39 38 36 44 45 46 50 51 53 52 46 41 29 28 30
12 13 15 20 17 16 18 18 16 19 36 19 17 11 9 9 12 10 12 12 15 17 23 28 33 31 22 19 27 30 23 20 27 31 33 43 46 48 47 55 60 56 42 37 35
11 12 13 16 19 20 21 19 18 27 33 22 19 13 11 11 13 13 14 11 10 13 14 18 19 17 17 15 19 18 24 26 26 29 36 34 38 49 47 35 62 65 51 46 42
10 11 12 14 17 20 19 19 23 32 25 19 19 14 12 12 14 15 14 12 11 12 12 13 13 12 11 11 13 14 22 29 33 43 43 31 27 37 34 34 37 49 41 46 42
10 10 11 13 19 19 19 22 30 31 34 28 20 17 14 15 15 16 15 14 13 12 13 15 16 14 12 11 9 14 19 27 30 41 32 25 31 31 29 30 28 24 26 36 40
11 10 11 12 19 20 20 24 30 31 32 28 22 17 17 17 18 19 17 17 15 14 15 16 19 14 12 10 8 12 17 22 23 22 23 25 23 24 25 30 28 32 34 36 36
12 13 16 14 18 20 23 22 26 26 27 30 27 21 21 21 21 21 20 18 18 17 17 17 20 16 15 13 11 9 12 16 22 24 26 27 28 26 27 30 33 32 33 33 35
18 22 19 17 14 21 25 21 21 27 27 28 28 26 26 29 23 23 23 19 18 18 18 17 18 22 20 18 18 14 11 12 17 19 23 29 31 26 30 32 32 31 32 31 32
22 28 23 24 22 19 23 21 21 27 29 25 25 25 26 29 30 28 25 24 21 21 20 17 17 23 21 20 21 17 14 18 22 18 22 25 28 24 32 32 31 30 28 29 31
16 30 28 25 23 18 18 21 24 27 31 26 24 22 24 28 30 31 32 27 23 25 25 22 21 19 18 19 23 23 21 20 22 21 23 29 31 27 28 29 30 30 31 31 28
26 31 30 29 25 23 26 29 26 29 27 26 25 24 22 24 27 29 34 31 29 29 27 24 23 23 26 25 28 28 29 26 25 26 24 23 29 32 33 35 34 34 34 31 29
25 32 31 36 29 26 30 33 34 33 29 26 24 25 25 28 27 28 29 37 32 31 31 28 26 23 21 22 28 30 32 33 37 34 26 22 33 41 42 41 44 43 42 37 36
22 32 33 34 29 29 31 32 33 36 31 29 28 24 27 28 29 34 32 31 38 37 33 31 31 27 27 23 25 29 31 36 37 37 37 28 29 40 43 44 43 45 43 41 39
21 26 29 34 30 29 30 29 31 36 33 30 30 29 30 30 29 27 30 30 32 35 40 40 38 36 34 32 29 29 31 34 35 37 39 41 40 40 42 45 48 46 46 46 43